Погода в Староюрьево

Россия / Тамбовская область     53°19′12″N   40°41′43″E
темп.,
°C
ветер,
м/с
пор.,
м/с
влажн.,
%
обл.,
%
осадки,
мм/ч
давл.,
гПа
погр.,
м
10 апреля, сб
сб1000:00+3ссв226197 0.0 102710
03:00+2всв22694 0.0 102815
06:00+1св23744 0.0 102833
09:00+6св355319 0.0 1028468
12:00+9ссв44393 0.0 10261213
15:00+10ссв44354 0.0 10261445
18:00+9ссв35420 0.0 1025193
21:00+6ссв33570 0.0 102640
11 апреля, вс
вс1100:00+4ссв22710 0.0 102714
03:00+3с3575100 0.0 102868
06:00+2ссв3575100 0.0 102979
09:00+6ссв4759100 0.0 1030382
12:00+10ссв5741100 0.0 1029821
15:00+12св6735100 0.0 1029973
18:00+9св51047100 0.0 1030398
21:00+8св5115997 0.0 1030327
12 апреля, пн
пн1200:00+7св51170100 0.0 1029368
03:00+6св51088100 0.0 1029301
06:00+5св4996100 0.0 1029262
09:00+9всв6881100 0.0 1028363
12:00+14в5763100 0.0 1027535
15:00+19вюв6844100 0.0 1026964
18:00+17в4853100 0.0 1025178
21:00+13юв4126596 0.0 1026202
13 апреля, вт
вт1300:00+11юв412749 0.0 1027186
03:00+9юв411755 0.0 1027161
06:00+7вюв4107267 0.0 1027170
09:00+12юв595274 0.0 1026338
12:00+17ююв6838100 0.0 1025838
15:00+19ююв573256 0.0 10241335
18:00+17юв4844100 0.0 1023210
21:00+13юв4125735 0.0 1024233
14 апреля, ср
ср1400:00+11юв4136281 0.0 1024254
03:00+10юв41269100 0.0 1023213
06:00+9юв4116994 0.0 1023193
09:00+14ююв6114522 0.0 1022428
12:00+19ююв7102927 0.0 10211288
15:00+20ююв7924100 0.0 10202031
18:00+17ююв5939100 0.0 1019265
21:00+13юв475299 0.0 1019101